Temp
4 3 3 2 2 1 1 1 1 1 1 0 1 1 1 1 1 1 2 2 2 3 3 3 4 5 5
2 3 2 1 1 0 0 1 1 1 0 1 1 1 1 1 1 1 1 1 2 3 4 4 4 4 5
1 2 1 1 0 0 1 0 1 0 1 1 0 0 0 0 1 0 0 1 3 3 3 3 5 5 5
1 1 1 1 0 0 0 0 0 0 1 0 -0 -0 -0 0 -0 -0 1 3 2 2 1 2 2 3 5
1 1 1 1 0 0 -0 -0 0 1 0 -1 -0 -1 -0 0 -1 0 1 2 2 2 1 1 0 1 1
0 0 0 -0 -0 -0 -1 -0 -0 -0 -1 -1 -1 -1 -1 -1 -1 0 1 2 2 1 1 0 0 0 0
-1 -1 -1 -1 -1 -1 -2 -2 -1 -1 -1 -1 -1 -1 -1 -1 -1 0 1 1 1 0 -0 -0 -0 -0 0
-2 -2 -2 -3 -3 -2 -2 -2 -2 -1 -1 -1 -1 -2 -1 -1 -1 -0 0 0 0 -0 -1 -1 -1 -1 -0
-3 -4 -4 -4 -3 -3 -3 -3 -2 -2 -2 -3 -2 -2 -2 -1 -1 -1 -0 -0 -0 -1 -1 -2 -2 -1 -1
-3 -4 -4 -4 -4 -4 -4 -4 -4 -2 -1 -3 -2 -3 -2 -1 -1 -1 -1 -1 -1 -1 -2 -2 -2 -2 -2
-4 -4 -4 -4 -5 -5 -4 -5 -4 -3 -3 -3 -3 -3 -3 -2 -1 -2 -2 -2 -2 -2 -2 -2 -3 -3 -3
-4 -4 -4 -5 -5 -5 -4 -4 -4 -4 -4 -4 -4 -4 -3 -3 -2 -2 -2 -2 -2 -2 -3 -3 -3 -4 -4
-5 -5 -5 -6 -5 -5 -4 -4 -4 -4 -4 -4 -4 -4 -4 -3 -2 -2 -2 -3 -3 -3 -3 -3 -4 -4 -4
-6 -6 -6 -6 -5 -5 -4 -4 -4 -4 -4 -4 -4 -4 -4 -3 -3 -2 -2 -2 -3 -3 -3 -4 -4 -5 -4
-7 -7 -6 -6 -6 -5 -4 -5 -4 -4 -4 -5 -5 -4 -4 -4 -3 -3 -3 -3 -4 -4 -4 -4 -4 -4 -4
-8 -7 -7 -7 -7 -6 -4 -5 -4 -4 -5 -5 -5 -4 -3 -3 -3 -4 -4 -4 -4 -4 -4 -4 -4 -5 -5
-8 -8 -8 -8 -7 -6 -5 -5 -4 -4 -5 -5 -6 -5 -3 -2 -4 -4 -4 -4 -4 -5 -5 -4 -5 -5 -5
Height
869 865 860 855 850 846 842 837 831 825 819 812 806 800 793 785 777 767 758 749 737 725 717 706 695 687 681
868 863 859 854 850 845 841 836 830 824 817 810 804 797 789 783 775 766 755 745 734 723 713 703 688 677 674
867 863 858 853 848 844 839 834 829 821 814 808 803 794 786 779 771 762 752 742 733 724 715 701 669 657 667
865 860 857 852 848 841 835 832 824 818 812 806 800 792 784 777 769 760 751 742 735 729 719 709 692 678 672
863 858 854 849 845 839 832 825 820 815 810 803 797 792 784 777 769 760 753 747 740 734 726 718 707 696 690
861 858 853 849 844 838 831 824 812 813 809 802 798 791 785 778 771 760 754 748 744 739 733 727 719 712 704
861 857 852 848 843 835 831 827 820 813 808 800 797 790 785 779 773 763 757 752 749 745 740 736 730 724 719
859 856 851 846 841 835 828 823 819 814 810 800 794 790 783 780 776 768 764 758 755 751 747 743 740 735 730
854 851 847 843 837 832 826 820 814 811 808 804 797 790 782 779 777 772 766 764 760 757 754 750 748 744 740
850 847 844 839 834 831 827 823 819 809 807 803 798 794 785 781 779 775 770 768 765 761 759 756 753 751 750
849 846 843 838 832 830 828 823 819 815 809 806 798 795 792 786 781 777 774 771 768 766 763 761 759 756 755
847 843 839 835 830 828 824 819 816 812 806 803 799 796 793 788 783 780 777 775 773 770 768 766 764 762 760
844 840 836 832 829 826 821 816 811 806 803 799 796 793 791 787 784 781 779 777 775 774 772 769 767 766 765
843 838 834 830 827 824 819 814 808 804 801 796 794 790 788 785 783 781 779 779 778 776 775 773 772 771 770
839 836 833 830 824 821 818 813 808 803 798 795 792 788 787 785 782 780 779 779 779 778 778 777 777 776 775
838 836 831 826 824 820 816 812 807 804 800 795 791 787 785 784 782 781 780 780 780 780 780 780 780 779 778
837 834 830 826 822 818 813 810 805 802 800 796 793 790 787 784 783 781 781 781 781 782 782 782 782 782 781
Wind_Speed
16 21 23 24 25 25 25 25 25 29 31 35 35 35 38 40 43 42 44 46 50 48 42 44 46 44 36
21 21 22 23 24 26 24 22 26 29 32 32 33 36 37 39 41 42 44 46 46 37 36 39 42 44 30
20 19 21 22 25 22 23 26 26 29 28 28 34 34 35 34 39 40 44 48 33 28 33 39 43 16 13
16 18 19 20 21 25 27 25 28 31 24 30 31 33 32 31 34 36 43 22 28 27 33 33 49 42 41
16 18 20 23 23 25 26 30 28 17 23 30 30 35 33 33 32 36 37 26 22 23 28 33 37 41 40
15 18 21 23 25 26 28 27 16 21 34 31 28 31 31 32 32 32 31 18 20 25 29 32 35 36 37
14 17 22 23 25 26 24 23 25 30 28 30 29 27 30 30 29 30 18 19 22 23 25 28 30 31 31
13 17 20 22 20 22 24 24 23 22 22 22 24 25 31 21 27 19 19 19 20 19 21 24 27 28 28
16 18 17 17 17 19 20 23 23 24 22 12 20 26 23 14 23 16 17 17 17 17 18 21 19 21 26
15 14 14 15 16 15 19 21 22 18 11 22 19 16 10 7 20 21 10 12 16 16 18 20 17 17 17
12 12 14 14 16 19 20 21 22 22 26 22 15 16 6 11 13 15 7 9 10 13 17 19 20 16 13
11 13 15 18 20 22 22 21 22 25 22 16 14 16 15 16 8 10 4 7 8 9 12 12 14 17 17
13 15 17 21 23 21 21 21 18 17 13 16 14 17 16 12 11 8 3 2 3 6 10 13 14 14 14
13 16 17 19 20 20 21 19 17 14 15 16 14 11 11 11 9 9 3 1 1 3 7 10 12 13 14
13 15 17 17 19 21 20 18 14 17 18 17 14 10 10 10 7 5 3 3 3 3 4 6 9 10 10
13 15 17 18 19 21 18 16 16 15 16 15 15 12 8 5 5 3 3 4 4 3 2 3 6 8 9
13 16 17 19 18 19 19 17 15 14 14 12 10 9 7 5 4 2 2 5 5 3 1 2 3 4 6
Wind_Direction
314 318 323 328 330 332 331 331 329 329 330 329 330 330 329 328 329 327 325 324 322 316 311 306 304 301 294
313 321 323 327 326 327 329 328 325 326 328 329 331 329 329 329 329 328 329 329 327 327 327 331 312 302 290
309 318 320 327 326 326 326 325 326 326 329 331 328 330 328 329 331 332 333 332 333 357 350 339 349 330 295
313 317 323 326 323 324 324 329 327 329 331 332 328 329 331 331 331 337 340 16 0 9 14 13 27 51 49
317 320 324 327 327 325 320 323 325 326 331 332 331 332 333 334 335 340 343 354 13 20 31 33 37 40 51
318 319 320 321 322 323 322 325 327 334 332 326 334 327 330 334 336 348 346 0 39 42 38 36 39 42 48
311 313 313 318 319 323 324 324 319 319 327 322 328 323 331 335 346 1 46 51 47 43 44 42 40 42 47
305 304 305 311 316 314 316 316 316 320 328 313 325 323 329 335 353 10 26 41 39 42 41 42 45 47 48
302 305 315 322 327 325 328 328 322 325 329 323 322 323 328 336 350 0 44 30 34 38 41 45 46 50 51
322 324 326 328 333 339 328 319 319 321 334 327 321 336 327 327 338 347 32 45 45 44 48 44 39 48 55
316 320 325 329 335 334 333 320 308 299 308 318 309 320 301 310 325 340 21 38 49 65 59 48 43 47 52
327 329 331 335 335 332 328 323 313 303 311 317 297 305 300 303 298 331 29 69 78 57 43 36 39 47 51
334 331 331 329 329 327 329 324 308 314 324 327 314 309 299 273 287 299 316 33 53 32 35 36 39 39 37
330 331 331 327 322 328 325 324 319 323 329 332 327 329 318 306 290 288 241 258 79 51 47 44 41 41 43
337 334 328 325 327 332 327 325 323 327 331 333 329 319 308 325 305 286 226 168 158 111 49 49 43 43 44
337 330 325 330 325 326 329 329 324 326 329 330 332 345 329 286 332 266 196 169 173 156 81 62 56 46 48
327 324 328 325 322 323 326 326 322 323 326 326 328 341 326 316 319 296 231 198 172 140 79 55 77 54 45